Weather History for KNBT - March, 2013

Change the Weather History Date:

Sunday, March 10, 2013

  Actual Average (KMRH) Record (KMRH)
Temperature  
Mean Temperature 48 °F -  
Max Temperature 55 °F 63 °F 86 °F (1974)
Min Temperature 42 °F 40 °F 25 °F (1984)
Degree Days  
Heating Degree Days 16    
Moisture  
Dew Point 42 °F    
Average Humidity 76    
Maximum Humidity 89    
Minimum Humidity 63    
Precipitation  
Precipitation 0.00 in - - ()
Sea Level Pressure  
Sea Level Pressure 30.30 in    
Wind  
Wind Speed 7 mph (NE)    
Max Wind Speed 13 mph    
Max Gust Speed -    
Averages and records for this station are not official NWS values.
T = Trace of Precipitation, MM = Missing Value Source: NWS Daily Summary

Daily Weather History Graph

Daily Weather History Graph

Search for Another Location

Airport or City:

Trip Planner

Search our weather history database for the weather conditions in past years. The results will help you decide how hot, cold, wet, or windy it might be!

Date:

Astronomy

Mar. 10, 2013 Rise Set
Actual Time 7:23 AM EDT 7:09 PM EDT
Civil Twilight 6:57 AM EDT 7:34 PM EDT
Nautical Twilight 6:28 AM EDT 8:04 PM EDT
Astronomical Twilight 5:59 AM EDT 8:33 PM EDT
Moon 6:20 AM EDT (3/10) 6:15 PM EDT (3/10)
Length of Visible Light 12h 36m
Length of Day
11h 46m
Waning Crescent, 2% of the Moon is Illuminated
Mar 10
Waning Crescent
Mar 11
New
Mar 19
First Quarter
Mar 27
Full
Apr 3
Last Quarter

Hourly Weather History & Observations

Time (EDT) Temp. Windchill Dew Point Humidity Pressure Visibility Wind Dir Wind Speed Gust Speed Precip Events Conditions
12:56 AM 46.0 °F 42.5 °F 37.0 °F 71% 30.30 in - NE 6.9 mph - N/A   Clear
1:56 AM 45.0 °F 42.6 °F 37.0 °F 74% 30.30 in - North 4.6 mph - N/A   Clear
3:56 AM 42.1 °F 39.2 °F 35.1 °F 76% 30.29 in - North 4.6 mph - N/A   Clear
4:56 AM 44.1 °F 41.5 °F 36.0 °F 73% 30.28 in - North 4.6 mph - N/A   Clear
5:56 AM 44.1 °F 40.8 °F 35.1 °F 71% 30.29 in - NNE 5.8 mph - N/A   Clear
6:56 AM 45.0 °F 40.6 °F 33.1 °F 63% 30.29 in - NE 8.1 mph - N/A   Clear
7:56 AM 45.0 °F 42.6 °F 37.0 °F 74% 30.31 in - NNE 4.6 mph - N/A   Clear
8:56 AM 48.0 °F - 37.0 °F 66% 30.31 in - NNE 10.4 mph - N/A   Clear
9:56 AM 48.9 °F - 37.9 °F 66% 30.33 in - NNE 9.2 mph - N/A   Clear
10:56 AM 50.0 °F - 39.9 °F 68% 30.32 in - NNE 9.2 mph - N/A   Clear
11:56 AM 51.1 °F - 39.9 °F 66% 30.34 in - ENE 8.1 mph - N/A   Clear
12:56 PM 53.1 °F - 42.1 °F 66% 30.34 in - ENE 8.1 mph - N/A   Clear
1:56 PM 54.0 °F - 44.1 °F 69% 30.32 in - ENE 11.5 mph - N/A   Clear
2:56 PM 55.0 °F - 46.0 °F 72% 30.29 in - East 12.7 mph - N/A   Clear
3:56 PM 55.0 °F - 46.9 °F 74% 30.29 in - East 9.2 mph - N/A   Clear
4:56 PM 54.0 °F - 46.0 °F 75% 30.29 in - ENE 9.2 mph - N/A   Clear
5:56 PM 52.0 °F - 46.0 °F 80% 30.28 in - ENE 8.1 mph - N/A   Clear
6:04 PM 51.8 °F - 46.4 °F 82% 30.27 in - ENE 8.1 mph - N/A   Scattered Clouds
6:56 PM 52.0 °F - 46.9 °F 83% 30.29 in - ENE 8.1 mph - N/A   Clear
7:56 PM 50.0 °F - 46.0 °F 86% 30.30 in - ENE 8.1 mph - N/A   Clear
8:56 PM 50.0 °F - 46.9 °F 89% 30.30 in - ENE 6.9 mph - N/A   Clear
9:56 PM 50.0 °F - 46.9 °F 89% 30.30 in - ENE 5.8 mph - N/A   Clear
10:56 PM 50.0 °F - 46.9 °F 89% 30.30 in - East 6.9 mph - N/A   Clear
11:56 PM 50.0 °F - 46.9 °F 89% 30.29 in - ENE 8.1 mph - N/A   Clear
12:56 AM 50.0 °F - 46.9 °F 89% 30.27 in - ENE 5.8 mph - N/A   Clear